Fosston, MN

3:24 AM CST on February 07, 2016 (GMT -0600)
Fosston Municipal

Weather History for KFSE - January, 2013

Change the Weather History Date:

Friday, January 25, 2013

  Actual Average Record
Temperature  
Mean Temperature -3 °F -  
Max Temperature 8 °F 15 °F 45 °F (1973)
Min Temperature -14 °F -7 °F -35 °F (1991)
Degree Days  
Heating Degree Days 68    
Moisture  
Dew Point -7 °F    
Average Humidity 78    
Maximum Humidity 92    
Minimum Humidity 61    
Precipitation  
Precipitation 0.00 in - - ()
Sea Level Pressure  
Sea Level Pressure 30.07 in    
Wind  
Wind Speed 14 mph (West)    
Max Wind Speed 22 mph    
Max Gust Speed 29 mph    
Visibility 6 miles    
Events Snow    
Averages and records for this station are not official NWS values.
T = Trace of Precipitation, MM = Missing Value Source: NWS Daily Summary

Daily Weather History Graph

Daily Weather History Graph

Search for Another Location

Airport or City:

Trip Planner

Search our weather history database for the weather conditions in past years. The results will help you decide how hot, cold, wet, or windy it might be!

Date:

Astronomy

Jan. 25, 2013 Rise Set
Actual Time 7:57 AM CST 5:13 PM CST
Civil Twilight 7:23 AM CST 5:47 PM CST
Nautical Twilight 6:46 AM CST 6:25 PM CST
Astronomical Twilight 6:10 AM CST 7:01 PM CST
Moon 4:12 PM CST (1/25) 6:38 AM CST (1/25)
Length of Visible Light 10h 23m
Length of Day
9h 16m
Waxing Gibbous, 98% of the Moon is Illuminated
Jan 25
Waxing Gibbous
Jan 26
Full
Feb 3
Last Quarter
Feb 10
New
Feb 17
First Quarter

Hourly Weather History & Observations

Time (CST) Temp. Windchill Dew Point Humidity Pressure Visibility Wind Dir Wind Speed Gust Speed Precip Events Conditions
12:15 AM 5.0 °F -14.7 °F 1.4 °F 85% 29.93 in 5.0 mi South 18.4 mph - N/A Snow Light Snow
12:36 AM 6.8 °F -11.3 °F 1.4 °F 79% 29.91 in 7.0 mi South 16.1 mph 24.2 mph N/A Snow Light Snow
12:55 AM 6.8 °F -11.8 °F 1.4 °F 79% 29.90 in 7.0 mi South 17.3 mph - N/A Snow Light Snow
1:15 AM 6.8 °F -11.8 °F 1.4 °F 79% 29.88 in 5.0 mi South 17.3 mph - N/A Snow Light Snow
1:35 AM 8.6 °F -10.5 °F 3.2 °F 79% 29.87 in 7.0 mi South 19.6 mph 24.2 mph N/A Snow Light Snow
1:55 AM 8.6 °F -11.0 °F 3.2 °F 79% 29.86 in 3.0 mi SSW 20.7 mph 24.2 mph N/A Snow Light Snow
2:15 AM 8.6 °F -11.0 °F 5.0 °F 85% 29.85 in 1.8 mi SSW 20.7 mph - N/A Snow Light Snow
2:35 AM 8.6 °F -9.5 °F 5.0 °F 85% 29.84 in 2.5 mi SSW 17.3 mph - N/A Snow Light Snow
2:55 AM 8.6 °F -8.9 °F 5.0 °F 85% 29.84 in 4.0 mi SSW 16.1 mph - N/A Snow Light Snow
3:15 AM 8.6 °F -8.3 °F 5.0 °F 85% 29.84 in 5.0 mi SW 15.0 mph 19.6 mph N/A Snow Light Snow
3:35 AM 8.6 °F -7.7 °F 6.8 °F 92% 29.84 in 3.0 mi SW 13.8 mph - N/A Snow Light Snow
3:55 AM 8.6 °F -7.0 °F 6.8 °F 92% 29.83 in 2.0 mi SW 12.7 mph - N/A Snow Light Snow
4:15 AM 8.6 °F -7.0 °F 5.0 °F 85% 29.83 in 4.0 mi West 12.7 mph - N/A Snow Light Snow
4:35 AM 8.6 °F -9.5 °F 3.2 °F 79% 29.83 in 4.0 mi West 17.3 mph 21.9 mph N/A Snow Light Snow
4:55 AM 8.6 °F -9.5 °F 3.2 °F 79% 29.83 in 3.0 mi West 17.3 mph 20.7 mph N/A Snow Light Snow
5:15 AM 6.8 °F -11.3 °F 3.2 °F 85% 29.84 in 3.0 mi West 16.1 mph 23.0 mph N/A Snow Light Snow
5:35 AM 6.8 °F -11.8 °F 3.2 °F 85% 29.84 in 3.0 mi West 17.3 mph 23.0 mph N/A Snow Light Snow
5:55 AM 6.8 °F -12.4 °F 3.2 °F 85% 29.85 in 3.0 mi West 18.4 mph - N/A Snow Light Snow
6:15 AM 6.8 °F -12.4 °F 3.2 °F 85% 29.86 in 2.0 mi West 18.4 mph - N/A Snow Light Snow
6:35 AM 5.0 °F -16.2 °F 1.4 °F 85% 29.87 in 1.8 mi WNW 21.9 mph 28.8 mph N/A Snow Light Snow
6:55 AM 3.2 °F -17.6 °F -0.4 °F 85% 29.89 in 1.2 mi WNW 19.6 mph 25.3 mph N/A Snow Light Snow
7:35 AM 1.4 °F -18.2 °F -2.2 °F 85% 29.92 in 2.0 mi WNW 16.1 mph 23.0 mph N/A Snow Light Snow
7:55 AM -0.4 °F -19.9 °F -4.0 °F 85% 29.93 in 2.5 mi WNW 15.0 mph 21.9 mph N/A Snow Light Snow
8:15 AM -0.4 °F -21.2 °F -5.8 °F 78% 29.94 in 1.5 mi WNW 17.3 mph 24.2 mph N/A Snow Light Snow
8:35 AM -0.4 °F -21.2 °F -5.8 °F 78% 29.96 in 1.5 mi WNW 17.3 mph 24.2 mph N/A Snow Light Snow
8:55 AM -0.4 °F -20.5 °F -5.8 °F 78% 29.98 in 1.8 mi WNW 16.1 mph 25.3 mph N/A   Haze
9:15 AM -2.2 °F -22.2 °F -7.6 °F 78% 29.99 in 1.5 mi WNW 15.0 mph 21.9 mph N/A   Haze
9:35 AM -2.2 °F -21.5 °F -7.6 °F 78% 30.01 in 1.5 mi WNW 13.8 mph - N/A   Haze
9:55 AM -2.2 °F -22.2 °F -7.6 °F 78% 30.02 in 2.0 mi WNW 15.0 mph 23.0 mph N/A   Haze
10:15 AM -2.2 °F -22.2 °F -7.6 °F 78% 30.04 in 1.8 mi WNW 15.0 mph 18.4 mph N/A   Haze
10:35 AM -0.4 °F -19.2 °F -7.6 °F 72% 30.06 in 2.0 mi NW 13.8 mph 19.6 mph N/A   Haze
10:55 AM -0.4 °F -19.2 °F -7.6 °F 72% 30.07 in 4.0 mi NW 13.8 mph - N/A   Haze
11:15 AM -0.4 °F -19.9 °F -7.6 °F 72% 30.08 in 3.0 mi NW 15.0 mph - N/A   Haze
11:35 AM -0.4 °F -21.2 °F -7.6 °F 72% 30.09 in 2.0 mi NW 17.3 mph 23.0 mph N/A   Haze
11:55 AM -0.4 °F -19.2 °F -7.6 °F 72% 30.10 in 2.5 mi NW 13.8 mph - N/A   Haze
12:16 PM -0.4 °F -19.9 °F -7.6 °F 72% 30.11 in 3.0 mi WNW 15.0 mph - N/A   Haze
12:35 PM 1.4 °F -18.2 °F -7.6 °F 66% 30.12 in 4.0 mi NW 16.1 mph - N/A   Haze
12:55 PM 1.4 °F -16.9 °F -7.6 °F 66% 30.12 in 7.0 mi NW 13.8 mph - N/A   Mostly Cloudy
1:16 PM 1.4 °F -18.8 °F -7.6 °F 66% 30.12 in 7.0 mi NW 17.3 mph - N/A   Mostly Cloudy
1:35 PM 1.4 °F -17.6 °F -7.6 °F 66% 30.13 in 10.0 mi NW 15.0 mph 19.6 mph N/A   Scattered Clouds
1:55 PM 1.4 °F -15.3 °F -7.6 °F 66% 30.14 in 10.0 mi WNW 11.5 mph 18.4 mph N/A   Clear
2:16 PM 1.4 °F -16.1 °F -7.6 °F 66% 30.14 in 10.0 mi NW 12.7 mph 18.4 mph N/A   Clear
2:35 PM 1.4 °F -16.1 °F -7.6 °F 66% 30.15 in 10.0 mi WNW 12.7 mph 17.3 mph N/A   Clear
2:55 PM 1.4 °F -14.5 °F -7.6 °F 66% 30.16 in 10.0 mi WNW 10.4 mph - N/A   Clear
3:16 PM 1.4 °F -16.9 °F -9.4 °F 61% 30.17 in 10.0 mi NW 13.8 mph - N/A   Clear
3:35 PM -0.4 °F -16.7 °F -9.4 °F 66% 30.18 in 10.0 mi NW 10.4 mph - N/A   Clear
3:55 PM -0.4 °F -17.6 °F -9.4 °F 66% 30.19 in 10.0 mi NW 11.5 mph - N/A   Clear
4:16 PM -2.2 °F -16.8 °F -9.4 °F 71% 30.19 in 10.0 mi WNW 8.1 mph - N/A   Clear
4:35 PM -5.8 °F -18.4 °F -11.2 °F 77% 30.20 in 10.0 mi WNW 5.8 mph - N/A   Clear
4:55 PM -5.8 °F -19.9 °F -11.2 °F 77% 30.20 in 10.0 mi WNW 6.9 mph - N/A   Clear
5:16 PM -7.6 °F - -13.0 °F 77% 30.21 in 10.0 mi Calm Calm - N/A   Clear
5:35 PM -9.4 °F - -14.8 °F 77% 30.22 in 10.0 mi Calm Calm - N/A   Clear
5:55 PM -9.4 °F - -14.8 °F 77% 30.22 in 10.0 mi Calm Calm - N/A   Clear
6:15 PM -9.4 °F - -14.8 °F 77% 30.24 in 10.0 mi Calm Calm - N/A   Clear
6:35 PM -9.4 °F - -14.8 °F 77% 30.24 in 10.0 mi Calm Calm - N/A   Clear
6:55 PM -11.2 °F - -14.8 °F 84% 30.24 in 10.0 mi Calm Calm - N/A   Clear
7:16 PM -11.2 °F - -14.8 °F 84% 30.24 in 10.0 mi Calm Calm - N/A   Clear
7:35 PM -11.2 °F - -16.6 °F 77% 30.23 in 10.0 mi Calm Calm - N/A   Clear
7:55 PM -11.2 °F - -16.6 °F 77% 30.22 in 10.0 mi Calm Calm - N/A   Clear
8:15 PM -13.0 °F - -16.6 °F 84% 30.22 in 10.0 mi Calm Calm - N/A   Clear
8:35 PM -13.0 °F - -18.4 °F 77% 30.23 in 10.0 mi Calm Calm - N/A   Clear
8:55 PM -14.8 °F - -18.4 °F 84% 30.24 in 10.0 mi Calm Calm - N/A   Clear
9:15 PM -14.8 °F - -18.4 °F 84% 30.24 in 10.0 mi Calm Calm - N/A   Clear
9:35 PM -14.8 °F -29.1 °F -18.4 °F 84% 30.26 in 10.0 mi SW 5.8 mph - N/A   Clear
9:55 PM -14.8 °F - -18.4 °F 84% 30.25 in 10.0 mi Calm Calm - N/A   Clear
10:15 PM -14.8 °F - -18.4 °F 84% 30.26 in 10.0 mi Calm Calm - N/A   Clear
10:35 PM -14.8 °F - -18.4 °F 84% 30.27 in 10.0 mi Calm Calm - N/A   Clear
10:55 PM -14.8 °F - -20.2 °F 77% 30.27 in 10.0 mi Calm Calm - N/A   Clear
11:15 PM -14.8 °F - -20.2 °F 77% 30.27 in 10.0 mi Calm Calm - N/A   Clear
11:35 PM -14.8 °F - -20.2 °F 77% 30.28 in 10.0 mi Calm Calm - N/A   Clear
11:55 PM -14.8 °F - -20.2 °F 77% 30.27 in 7.0 mi Calm Calm - N/A   Clear